{"data":{"norad_id":69898,"intl_designator":"2026-156AF","name":"GRUS-3E","alt_names":[],"object_type":"PAYLOAD","status":"ACTIVE","operator":null,"country":"JPN","launch_date":"2026-07-07","launch_site_code":"AFWTR","launch_vehicle":null,"mission":null,"orbit_class":"UNKNOWN","rcs_meters":null,"size_class":null,"mass_kg":null,"dimensions":null,"purposes":[],"wikipedia_slug":null,"has_3d_model":false,"image_url":null,"decayed_at":null,"tle_current":{"epoch":"2026-09-18T11:13:22.209024Z","epoch_age_seconds":193383,"freshness":"STALE","line1":"1 69898U 26156AF  26261.46761816  .00000822  00000+0  87579-4 0  9997","line2":"2 69898  97.7463 160.6775 0003942 262.3249  97.7522 14.91557881 10907","mean_motion":14.91557881,"eccentricity":0.0003942,"inclination_deg":97.7463,"raan_deg":160.6775,"arg_perigee_deg":262.3249,"mean_anomaly_deg":97.7522,"bstar":8.7579e-5,"rev_number":1090,"period_min":96.543353653468,"perigee_km":590.32925434276,"apogee_km":595.82535970241,"semimajor_km":6971.2143070226,"source":"CELESTRAK","updated_at":"2026-09-20T09:00:25.170836Z"}}}